Location: Deurze
(52.9838°N, 6.6090°E)
Time: 18:48:52
(UTC+00:00)

Cosmos 1269 Rocket - Pass Details

Date: 11 March 2026
Orbit: 769 x 774 km, 74.1° (Epoch: 20 April)

Event Time Altitude Azimuth Distance (km) Brightness Sun altitude
Rises 18:49:19 0° 186° (S) 3,233 7.2 -12.6°
Reaches altitude 10° 18:51:44 10° 181° (S) 2,310 6.4 -13.0°
Maximum altitude 18:56:46 49° 107° (ESE) 991 4.2 -13.7°
Drops below altitude 10° 19:01:50 10° 34° (NE) 2,324 6.3 -14.5°
Sets 19:04:16 0° 29° (NNE) 3,254 7.1 -14.8°
